Location: Domont
(49.0278°N, 2.3264°E)
Time: 15:09:14
(UTC+00:00)

XW-2A - Visible Passes

Search period start: 26 June 2022 00:00
Search period end: 06 July 2022 00:00
Orbit: 398 x 413 km, 97.2° (Epoch: 26 June)

Date Brightness Start Highest point End Pass type
(mag) Time Alt. Az. Time Alt. Az. Time Alt. Az.
27 Jun ? 21:17:59 10° SSW 21:20:42 27° W 21:23:25 10° NW visible
29 Jun ? 21:12:28 10° SSW 21:15:18 32° W 21:18:08 10° NNW visible
01 Jul ? 21:06:50 10° S 21:09:45 38° W 21:12:42 10° NNW visible
02 Jul ? 21:51:59 10° WSW 21:53:09 12° W 21:54:18 10° WNW visible
03 Jul ? 21:01:05 10° S 21:04:05 45° W 21:07:05 10° NNW visible
04 Jul ? 21:45:43 10° WSW 21:47:21 14° W 21:49:01 10° WNW visible
05 Jul ? 20:55:13 10° S 20:58:16 56° W 21:01:20 10° NNW visible
